Regional Weather Roundup
Issued by NWS Charleston, WV

Home | Current Version | Previous Version | Graphics & Text | Print | Product List | Glossary On
Versions: 1 2 3 4 5 6 7 8 9 10 11 12 13 14 15 16 17 18 19 20 21 22 23 24 25 26 27 28 29 30 31 32 33 34 35 36 37 38 39 40 41 42 43 44 45 46 47 48 49 50
000
ASUS41 KRLX 290810
RWRRLX
West Virginia Regional Weather Roundup
National Weather Service Charleston WV
400 AM EDT SUN MAR 29 2015

Note: "fair" indicates few or no clouds below 12,000 feet with no
significant weather and/or obstructions to visibility.

WVZ003-290900-
Northern Panhandle of West Virginia

CITY           SKY/WX    TMP DP  RH WIND       PRES   REMARKS
WHEELING       CLEAR     18   8  65 SW5       30.32R
$$

WVZ009-290900-
Northwest West Virginia

CITY           SKY/WX    TMP DP  RH WIND       PRES   REMARKS
PARKERSBURG    CLEAR     17  11  77 S3        30.39S
$$

WVZ006-290900-
Western West Virginia

CITY           SKY/WX    TMP DP  RH WIND       PRES   REMARKS
HUNTINGTON     CLEAR     22  14  71 CALM      30.37S
$$

WVZ015-290900-
West Central West Virginia

CITY           SKY/WX    TMP DP  RH WIND       PRES   REMARKS
CHARLESTON     CLEAR     22  11  62 CALM      30.36S
$$

WVZ022-031-290900-
North Central West Virginia

CITY           SKY/WX    TMP DP  RH WIND       PRES   REMARKS
CLARKSBURG     CLEAR     19   8  62 CALM      30.33S
MORGANTOWN     CLEAR     17   7  64 CALM      30.32F
$$

WVZ025-035-042-045-290900-
Southern West Virginia

CITY           SKY/WX    TMP DP  RH WIND       PRES   REMARKS
BECKLEY          N/A     18   7  62 NW5       30.25S
LOGAN            N/A     23  10  58 CALM      30.29S
BLUEFIELD      CLEAR     19   6  57 W6        30.23S
LEWISBURG      CLEAR     22   8  55 CALM      30.25S
$$

WVZ047-290900-
Northern Mountains of West Virginia

CITY           SKY/WX    TMP DP  RH WIND       PRES   REMARKS
ELKINS         CLEAR     12   6  77 CALM      30.28S
$$

WVZ052-290900-
Eastern Panhandle of West Virginia

CITY           SKY/WX    TMP DP  RH WIND       PRES   REMARKS
MARTINSBURG    CLEAR     24   4  42 NW5       30.30S
PETERSBURG     CLEAR     23   4  43 CALM      30.32S
$$


USA.gov is the U.S. government's official web portal to all federal, state and local government web resources and services.